Location: Anne Acres
(38.7004°N, 75.0827°W)
Time: 03:08:41
(UTC+00:00)

Altair - Pass Details

Date: 14 November 2024
Orbit: 1501 x 1682 km, 47.2° (Epoch: 03 December)

Event Time Altitude Azimuth Distance (km) Brightness Sun altitude
Rises 22:33:59 0° 297° (WNW) 4,641 10.8 -9.4°
Reaches altitude 10° 22:37:18 10° 289° (WNW) 3,667 10.4 -10.0°
Maximum altitude 22:45:18 35° 228° (SW) 2,290 9.1 -11.5°
Drops below altitude 10° 22:53:32 10° 167° (SSE) 3,750 9.5 -13.1°
Sets 22:57:00 0° 159° (SSE) 4,759 10.0 -13.8°
